Вернуться в каталог

OPS 8464

TRANSIT 5B-7

АктивенНавигацияPO
NORAD 1514·PAYLOAD·🇺🇸 United States

Запущен Aug 13, 1965 с Vandenberg Space Force Base

Loading…

Ближайшие Пролёты (ближайшие 24 часа)

TLE

СвежийSource: Space-Track

Эпоха: Sep 14, 2026, 08:23 UTC

1 01514U 65065F   26257.34971860  .00000057  00000-0  94677-4 0  9992
2 01514  89.9998 227.8790 0067837 269.7371 248.6629 13.35380815973166

Отслеживайте OPS 8464 в реальном времени с AllMySat

Download on the App Store